IBE06BV LEMD-LEBL

Flight info

Callsign IBE06BV
Flight time 0h 53m
Altitude 30000
Route PINAR N870 PONEN T600 CASPE
Aircraft A320/M-SDE3FGHIRWY/LB1

Departure

Time 2026-04-30 20:46
Airport Adolfo Suárez Madrid–Barajas Airport (LEMD)

Arrival

Time 2026-04-30 21:39
Airport Josep Tarradellas Barcelona-El Prat Airport (LEBL)
Time Latitude Longitude Altitude Speed Heading
2026-04-30 20:24 40.48798 -3.58961 2022 ft 0 kts 271°
2026-04-30 20:36 40.48798 -3.58953 2022 ft 1 kts 271°
2026-04-30 20:37 40.48798 -3.58948 2022 ft 1 kts 271°
2026-04-30 20:37 40.48798 -3.58937 2031 ft 1 kts 272°
2026-04-30 20:37 40.48798 -3.58924 2026 ft 1 kts 247°
2026-04-30 20:37 40.48803 -3.58913 2030 ft 1 kts 207°
2026-04-30 20:38 40.48811 -3.58908 2032 ft 0 kts 186°
2026-04-30 20:41 40.48782 -3.58883 2030 ft 2 kts 146°
2026-04-30 20:41 40.48773 -3.58873 2030 ft 1 kts 140°
2026-04-30 20:41 40.48771 -3.58872 2029 ft 0 kts 140°
2026-04-30 20:42 40.48759 -3.58761 2022 ft 18 kts 90°
2026-04-30 20:43 40.48759 -3.58590 2022 ft 20 kts 89°
2026-04-30 20:43 40.48761 -3.58392 2015 ft 24 kts 89°
2026-04-30 20:43 40.48764 -3.58152 2006 ft 28 kts 87°
2026-04-30 20:44 40.48858 -3.57811 1994 ft 24 kts 91°
2026-04-30 20:44 40.48913 -3.57623 1992 ft 23 kts 12°
2026-04-30 20:44 40.49188 -3.57566 1988 ft 17 kts 54°
2026-04-30 20:45 40.49277 -3.57453 1983 ft 0 kts 360°
2026-04-30 20:46 40.51370 -3.57477 2013 ft 180 kts 359°
2026-04-30 20:46 40.52578 -3.57499 2818 ft 168 kts 359°
2026-04-30 20:47 40.54904 -3.57483 4218 ft 168 kts
2026-04-30 20:47 40.56049 -3.57124 4781 ft 170 kts 16°
2026-04-30 20:48 40.58442 -3.56217 5522 ft 198 kts 16°
2026-04-30 20:48 40.59839 -3.55693 5720 ft 220 kts 16°
2026-04-30 20:48 40.61393 -3.55109 5959 ft 243 kts 16°
2026-04-30 20:48 40.63044 -3.54490 6662 ft 248 kts 15°
2026-04-30 20:49 40.64757 -3.54151 7414 ft 251 kts
2026-04-30 20:49 40.66510 -3.53995 8195 ft 254 kts
2026-04-30 20:49 40.68281 -3.53801 8990 ft 258 kts 10°
2026-04-30 20:50 40.71462 -3.51513 10196 ft 281 kts 49°
2026-04-30 20:50 40.72649 -3.49333 10446 ft 305 kts 56°
2026-04-30 20:50 40.73879 -3.46927 10680 ft 329 kts 56°
2026-04-30 20:50 40.75196 -3.44361 11082 ft 344 kts 56°
2026-04-30 20:51 40.76558 -3.41720 11713 ft 351 kts 56°
2026-04-30 20:51 40.79359 -3.36322 13096 ft 362 kts 56°
2026-04-30 20:51 40.80788 -3.33564 13766 ft 367 kts 56°
2026-04-30 20:52 40.82217 -3.30803 14369 ft 371 kts 56°
2026-04-30 20:52 40.83679 -3.27976 14973 ft 375 kts 56°
2026-04-30 20:52 40.85975 -3.21772 16177 ft 381 kts 76°
2026-04-30 20:53 40.86644 -3.18327 16793 ft 384 kts 77°
2026-04-30 20:53 40.87314 -3.14895 17426 ft 387 kts 77°
2026-04-30 20:53 40.87986 -3.11480 18022 ft 390 kts 76°
2026-04-30 20:54 40.89369 -3.04481 19107 ft 397 kts 76°
2026-04-30 20:54 40.90067 -3.00941 19638 ft 399 kts 76°
2026-04-30 20:54 40.90768 -2.97381 20170 ft 401 kts 76°
2026-04-30 20:55 40.92179 -2.90200 21230 ft 406 kts 77°
2026-04-30 20:55 40.92884 -2.86580 21722 ft 408 kts 77°
2026-04-30 20:55 40.93593 -2.82935 22230 ft 410 kts 77°
2026-04-30 20:56 40.95017 -2.75580 23216 ft 415 kts 77°
2026-04-30 20:56 40.95732 -2.71873 23700 ft 417 kts 77°
2026-04-30 20:56 40.97171 -2.64391 24447 ft 423 kts 77°
2026-04-30 20:57 40.97902 -2.60602 24787 ft 426 kts 77°
2026-04-30 20:57 40.98637 -2.56792 25148 ft 429 kts 77°
2026-04-30 20:57 40.99374 -2.52958 25517 ft 431 kts 77°
2026-04-30 20:58 40.99852 -2.50463 25743 ft 433 kts 77°
2026-04-30 20:58 41.00501 -2.47032 26066 ft 435 kts 77°
2026-04-30 20:59 41.01983 -2.39207 26769 ft 440 kts 77°
2026-04-30 20:59 41.02176 -2.38187 26858 ft 441 kts 77°
2026-04-30 21:00 41.02820 -2.34793 27152 ft 443 kts 77°
2026-04-30 21:00 41.03413 -2.31660 27418 ft 445 kts 77°
2026-04-30 21:01 41.04764 -2.24532 27990 ft 450 kts 77°
2026-04-30 21:01 41.05257 -2.21917 28211 ft 451 kts 77°
2026-04-30 21:01 41.05717 -2.19478 28415 ft 453 kts 77°
2026-04-30 21:02 41.06481 -2.15420 28742 ft 455 kts 77°
2026-04-30 21:02 41.07248 -2.11334 29063 ft 458 kts 77°
2026-04-30 21:02 41.08016 -2.07228 29375 ft 460 kts 77°
2026-04-30 21:02 41.08787 -2.03101 29681 ft 463 kts 78°
2026-04-30 21:03 41.09562 -1.98945 29984 ft 465 kts 78°
2026-04-30 21:03 41.10336 -1.94787 30106 ft 462 kts 78°
2026-04-30 21:03 41.11093 -1.90721 30127 ft 448 kts 78°
2026-04-30 21:04 41.12565 -1.82777 30119 ft 441 kts 78°
2026-04-30 21:04 41.14735 -1.70936 30116 ft 440 kts 78°
2026-04-30 21:05 41.16169 -1.63093 30120 ft 440 kts 78°
2026-04-30 21:05 41.17610 -1.55194 30116 ft 440 kts 78°
2026-04-30 21:06 41.19037 -1.47287 30099 ft 440 kts 78°
2026-04-30 21:06 41.20468 -1.39376 30099 ft 441 kts 78°
2026-04-30 21:07 41.21894 -1.31447 30100 ft 442 kts 78°
2026-04-30 21:07 41.23317 -1.23511 30099 ft 442 kts 78°
2026-04-30 21:08 41.24451 -1.17188 30107 ft 442 kts 78°
2026-04-30 21:08 41.24759 -1.15462 30101 ft 442 kts 78°
2026-04-30 21:09 41.26177 -1.07518 30090 ft 442 kts 78°
2026-04-30 21:09 41.27592 -0.99548 30082 ft 443 kts 78°
2026-04-30 21:10 41.28996 -0.91570 30085 ft 443 kts 78°
2026-04-30 21:10 41.30392 -0.83583 30086 ft 444 kts 78°
2026-04-30 21:11 41.31785 -0.75592 30070 ft 444 kts 78°
2026-04-30 21:11 41.33163 -0.67656 29697 ft 434 kts 78°
2026-04-30 21:12 41.33837 -0.63759 29425 ft 430 kts 78°
2026-04-30 21:12 41.34506 -0.59890 29149 ft 428 kts 78°
2026-04-30 21:12 41.34998 -0.56014 28882 ft 423 kts 86°
2026-04-30 21:12 41.35040 -0.52119 28611 ft 419 kts 96°
2026-04-30 21:13 41.34679 -0.48288 28339 ft 416 kts 101°
2026-04-30 21:13 41.34246 -0.44487 28077 ft 415 kts 101°
2026-04-30 21:13 41.33816 -0.40691 27815 ft 413 kts 101°
2026-04-30 21:13 41.33390 -0.36921 27554 ft 412 kts 101°
2026-04-30 21:14 41.32968 -0.33156 27296 ft 410 kts 101°
2026-04-30 21:14 41.32548 -0.29412 27046 ft 409 kts 101°
2026-04-30 21:14 41.32128 -0.25682 26792 ft 407 kts 101°
2026-04-30 21:14 41.31707 -0.21964 26541 ft 406 kts 101°
2026-04-30 21:15 41.31284 -0.18266 26296 ft 404 kts 101°
2026-04-30 21:15 41.30859 -0.14577 26049 ft 403 kts 101°
2026-04-30 21:15 41.30433 -0.10901 25805 ft 401 kts 101°
2026-04-30 21:15 41.30013 -0.07242 25562 ft 400 kts 101°
2026-04-30 21:16 41.29603 -0.03654 25625 ft 381 kts 101°
2026-04-30 21:16 41.29215 -0.00259 25813 ft 366 kts 101°
2026-04-30 21:16 41.28819 0.03132 25729 ft 382 kts 101°
2026-04-30 21:16 41.28397 0.06694 25484 ft 394 kts 101°
2026-04-30 21:17 41.27972 0.10301 25274 ft 394 kts 101°
2026-04-30 21:17 41.27557 0.13843 25269 ft 391 kts 101°
2026-04-30 21:17 41.27139 0.17407 25155 ft 392 kts 100°
2026-04-30 21:17 41.26933 0.21034 24926 ft 396 kts 90°
2026-04-30 21:18 41.27127 0.24695 24661 ft 397 kts 86°
2026-04-30 21:18 41.27357 0.28346 24304 ft 395 kts 86°
2026-04-30 21:18 41.27581 0.31968 23959 ft 393 kts 86°
2026-04-30 21:18 41.27800 0.35578 23587 ft 391 kts 86°
2026-04-30 21:19 41.28014 0.39169 23203 ft 388 kts 86°
2026-04-30 21:19 41.28224 0.42743 22862 ft 387 kts 86°
2026-04-30 21:19 41.28432 0.46305 22518 ft 385 kts 86°
2026-04-30 21:19 41.28489 0.47295 22413 ft 384 kts 86°
2026-04-30 21:20 41.28587 0.48978 22264 ft 383 kts 86°
2026-04-30 21:20 41.28790 0.52495 21914 ft 380 kts 86°
2026-04-30 21:21 41.28990 0.55994 21575 ft 378 kts 86°
2026-04-30 21:21 41.29189 0.59472 21230 ft 375 kts 86°
2026-04-30 21:21 41.29585 0.66347 20565 ft 371 kts 86°
2026-04-30 21:22 41.29778 0.69753 20229 ft 368 kts 86°
2026-04-30 21:22 41.30337 0.79834 19253 ft 361 kts 86°
2026-04-30 21:23 41.30520 0.83150 18929 ft 358 kts 86°
2026-04-30 21:23 41.30699 0.86447 18608 ft 356 kts 86°
2026-04-30 21:23 41.31057 0.92973 17941 ft 352 kts 86°
2026-04-30 21:24 41.31233 0.96211 17630 ft 350 kts 86°
2026-04-30 21:24 41.31408 0.99433 17317 ft 348 kts 86°
2026-04-30 21:24 41.31580 1.02594 17013 ft 347 kts 86°
2026-04-30 21:24 41.31752 1.05790 16696 ft 345 kts 86°
2026-04-30 21:25 41.32087 1.12147 16071 ft 342 kts 87°
2026-04-30 21:25 41.32248 1.15257 15768 ft 340 kts 86°
2026-04-30 21:25 41.32412 1.18390 15463 ft 339 kts 86°
2026-04-30 21:26 41.32735 1.24603 14838 ft 336 kts 86°
2026-04-30 21:26 41.32893 1.27707 14430 ft 336 kts 86°
2026-04-30 21:27 41.33214 1.33885 13695 ft 333 kts 86°
2026-04-30 21:27 41.33375 1.36948 13302 ft 332 kts 86°
2026-04-30 21:27 41.33530 1.40001 12911 ft 330 kts 86°
2026-04-30 21:28 41.33835 1.46065 12149 ft 327 kts 86°
2026-04-30 21:28 41.33912 1.49070 11777 ft 324 kts 96°
2026-04-30 21:28 41.31889 1.54187 11031 ft 317 kts 142°
2026-04-30 21:29 41.29968 1.55541 10664 ft 312 kts 166°
2026-04-30 21:29 41.23592 1.56865 9546 ft 306 kts 173°
2026-04-30 21:30 41.19402 1.57686 8769 ft 302 kts 172°
2026-04-30 21:31 41.14151 1.61407 7648 ft 294 kts 118°
2026-04-30 21:31 41.13291 1.66571 6974 ft 285 kts 95°
2026-04-30 21:32 41.12936 1.71722 6339 ft 276 kts 95°
2026-04-30 21:32 41.12762 1.74233 6011 ft 271 kts 95°
2026-04-30 21:32 41.12591 1.76706 5687 ft 267 kts 95°
2026-04-30 21:32 41.12423 1.79138 5366 ft 262 kts 95°
2026-04-30 21:33 41.12260 1.81525 5040 ft 258 kts 95°
2026-04-30 21:33 41.11932 1.86173 4390 ft 249 kts 95°
2026-04-30 21:33 41.11770 1.88435 4077 ft 244 kts 95°
2026-04-30 21:34 41.11610 1.90659 3749 ft 241 kts 95°
2026-04-30 21:34 41.11296 1.95011 3105 ft 233 kts 95°
2026-04-30 21:34 41.11288 1.97095 2778 ft 221 kts 80°
2026-04-30 21:35 41.11758 1.98985 2446 ft 212 kts 63°
2026-04-30 21:35 41.12631 2.00529 2128 ft 211 kts 46°
2026-04-30 21:35 41.13818 2.01622 2008 ft 208 kts 29°
2026-04-30 21:35 41.15179 2.02296 2006 ft 210 kts 23°
2026-04-30 21:36 41.16553 2.02919 2002 ft 203 kts 23°
2026-04-30 21:36 41.17840 2.03501 2002 ft 190 kts 23°
2026-04-30 21:37 41.21249 2.05050 1582 ft 156 kts 25°
2026-04-30 21:37 41.22235 2.05499 1391 ft 144 kts 25°
2026-04-30 21:37 41.23160 2.05920 1207 ft 137 kts 26°
2026-04-30 21:37 41.24054 2.06328 1023 ft 136 kts 25°
2026-04-30 21:38 41.24949 2.06737 851 ft 135 kts 26°
2026-04-30 21:38 41.25856 2.07151 665 ft 141 kts 25°
2026-04-30 21:38 41.26782 2.07568 440 ft 140 kts 23°
2026-04-30 21:38 41.27699 2.07982 271 ft 139 kts 22°
2026-04-30 21:39 41.28619 2.08400 101 ft 138 kts 24°
2026-04-30 21:39 41.29505 2.08818 20 ft 122 kts 18°
2026-04-30 21:39 41.30148 2.09116 17 ft 76 kts 19°
2026-04-30 21:39 41.30504 2.09262 21 ft 37 kts 13°
2026-04-30 21:40 41.30655 2.09185 18 ft 15 kts 310°
2026-04-30 21:40 41.30635 2.09084 18 ft 12 kts 208°
2026-04-30 21:40 41.30563 2.09043 18 ft 11 kts 199°
2026-04-30 21:40 41.30494 2.09012 18 ft 10 kts 200°
2026-04-30 21:41 41.30421 2.08963 18 ft 15 kts 225°
2026-04-30 21:41 41.30354 2.08805 20 ft 20 kts 245°
2026-04-30 21:41 41.30298 2.08644 17 ft 19 kts 245°
2026-04-30 21:41 41.30244 2.08493 18 ft 17 kts 245°
2026-04-30 21:42 41.30192 2.08328 19 ft 22 kts 245°
2026-04-30 21:42 41.30130 2.08151 18 ft 21 kts 245°
2026-04-30 21:42 41.30052 2.08009 17 ft 18 kts 192°
2026-04-30 21:42 41.29934 2.08055 18 ft 19 kts 159°
2026-04-30 21:43 41.29807 2.08124 21 ft 20 kts 157°
2026-04-30 21:43 41.29713 2.08166 18 ft 22 kts 160°
2026-04-30 21:43 41.29584 2.08025 17 ft 20 kts 243°
2026-04-30 21:43 41.29531 2.07868 17 ft 18 kts 252°
2026-04-30 21:44 41.29484 2.07728 17 ft 16 kts 246°
2026-04-30 21:44 41.29439 2.07601 18 ft 15 kts 243°
2026-04-30 21:44 41.29393 2.07482 17 ft 16 kts 245°
2026-04-30 21:44 41.29349 2.07352 17 ft 15 kts 246°
2026-04-30 21:45 41.29301 2.07213 18 ft 27 kts 246°
2026-04-30 21:45 41.29197 2.06910 18 ft 21 kts 242°
2026-04-30 21:45 41.29092 2.06910 18 ft 15 kts 144°
2026-04-30 21:45 41.29010 2.06968 19 ft 7 kts 156°
2026-04-30 21:46 41.29008 2.06969 19 ft 0 kts 156°